Flag for Germany Weather past 2 weeks in Ellwangen (Jagst), Baden-Württemberg, Germany

Now
66 °F

Passing clouds.


Feels Like: 66 °F
Forecast: 51 / 58 °F
Wind: 6 mph from Northwest

Location: Stoetten

Current Time: Aug 30, 2014 at 4:30:27 PM

Latest Report: Aug 30, 2014 at 4:00 PM


Visibility: 47 mi

Pressure: 30.04 "Hg

Humidity: 63%

Dew point: 53 °F

Location of Ellwangen (Jagst)Location

Historic Weather in Ellwangen (Jagst) — Graph

°F

Ellwangen (Jagst) temperature yesterday

Maximum temperature yesterday: 65 °F (at 5:00 PM)
Minimum temperature yesterday: 56 °F (at 10:00 AM)
Average temperature yesterday: 60 °F

Past Weeks' High & Low Weather Summary

 TemperatureHumidityPressure
High68 °F (Aug 28, 6:00 PM)100% (Aug 16, 9:00 AM)30.19 "Hg (Aug 16, 9:00 AM)
Low44 °F (Aug 24, 3:00 AM)46% (Aug 21, 2:00 PM)29.69 "Hg (Aug 26, 8:00 AM)
Average55 °F80%30.00 "Hg
* Reported Aug 15 3:00 PM — Aug 30 3:00 PM, Ellwangen (Jagst), Weather by CustomWeather, © 2014

Note: Actual official high and low records may vary slightly from our data, if they occured in-between our weather recording intervals... More about our weather records

Advertising

Ellwangen (Jagst) weather history for previous 24 hours

 ConditionsComfort  
Time TempWeatherWind HumidityBarometerVisibility
3:00 PM
Aug 30
65 °FScattered clouds.6 mph61%30.05 "Hg47 mi
2:00 PM65 °FScattered clouds.5 mph71%30.07 "Hg43 mi
1:00 PM64 °FPartly sunny.5 mph73%30.09 "Hg43 mi
12:00 PM62 °FPartly sunny.6 mph77%30.10 "Hg43 mi
11:00 AM61 °FScattered clouds.5 mph83%30.11 "Hg37 mi
10:00 AM59 °FScattered clouds.5 mph88%30.11 "Hg19 mi
9:00 AM56 °FScattered clouds.6 mph95%30.11 "Hg16 mi
8:00 AM55 °FFog.5 mph99%30.11 "Hg12 mi
7:00 AM55 °FFog.6 mph100%30.10 "Hg0 mi
6:00 AM56 °FFog.5 mph100%30.10 "Hg0 mi
5:00 AM56 °FLow clouds.7 mph100%30.09 "Hg1 mi
4:00 AM56 °FLow clouds.5 mph100%30.09 "Hg1 mi
3:00 AM57 °FLow clouds.6 mph95%30.09 "Hg12 mi
2:00 AM57 °FLight rain. Low clouds.3 mph99%30.08 "Hg0 mi
1:00 AM57 °FOvercast.3 mph98%30.08 "Hg2 mi
12:00 AM58 °FLight rain. Overcast.3 mph98%30.07 "Hg3 mi
9:00 PM
Aug 29
59 °FOvercast.3 mph95%30.04 "Hg25 mi
8:00 PM61 °FSprinkles. Overcast.2 mph90%30.02 "Hg31 mi
7:00 PM63 °FSprinkles. Overcast.1 mph83%30.01 "Hg43 mi
6:00 PM64 °FPartly sunny.2 mph74%30.01 "Hg43 mi
5:00 PM65 °FPartly sunny.N/A75%30.01 "Hg37 mi
4:00 PM65 °FSprinkles. Overcast.5 mph81%30.02 "Hg22 mi
Weather by CustomWeather, © 2014

See weather overviewHow to use our weather pages